Weather History for Jackson, MI

Change the Weather History Date:

Tuesday, April 15, 2014

  Actual Average Record
Temperature  
Mean Temperature 29 °F 48 °F  
Max Temperature 36 °F 59 °F 82 °F (2002)
Min Temperature 22 °F 37 °F 21 °F (1957)
Degree Days  
Heating Degree Days 36 17  
Month to date heating degree days 295 301  
Since 1 July heating degree days 7034 6125  
Cooling Degree Days 0 0  
Month to date cooling degree days 0 0  
Year to date cooling degree days 0 0  
Moisture  
Dew Point 18 °F    
Average Humidity 66    
Maximum Humidity 92    
Minimum Humidity 39    
Precipitation  
Precipitation 0.01 in 0.09 in 1.10 in (2012)
Month to date precipitation 1.46 1.28  
Year to date precipitation 7.65 5.96  
Sea Level Pressure  
Sea Level Pressure 29.97 in    
Wind  
Wind Speed 11 mph (NW)    
Max Wind Speed 21 mph    
Max Gust Speed 29 mph    
Visibility 7 miles    
Events Snow    
T = Trace of Precipitation, MM = Missing Value Source: NWS Daily Summary

Daily Weather History Graph

Daily Weather History Graph

Search for Another Location

Airport:

Trip Planner

Search our weather history database for the weather conditions in past years. The results will help you decide how hot, cold, wet, or windy it might be!

Date:

Astronomy

Apr. 15, 2014 Rise Set
Actual Time 6:57 AM EDT 8:19 PM EDT
Civil Twilight 6:27 AM EDT 8:48 PM EDT
Nautical Twilight 5:52 AM EDT 9:23 PM EDT
Astronomical Twilight 5:15 AM EDT 10:00 PM EDT
Moon 9:00 PM EDT (4/15) 7:04 AM EDT (4/15)
Length of Visible Light 14h 20m
Length of Day
13h 22m
Full, 100% of the Moon is Illuminated
Apr 15
Full
Apr 22
Last Quarter
Apr 29
New
May 6
First Quarter
May 14
Full

Hourly Weather History & Observations

Time (EDT) Temp. Windchill Dew Point Humidity Pressure Visibility Wind Dir Wind Speed Gust Speed Precip Events Conditions
12:37 AM 28.0 °F 17.0 °F 26.1 °F 92% 29.83 in 2.5 mi NNW 13.8 mph 19.6 mph 0.01 in Snow Light Snow
12:44 AM 28.0 °F 17.5 °F 25.0 °F 88% 29.82 in 4.0 mi NNW 12.7 mph - 0.01 in Snow Light Snow
1:17 AM 28.0 °F 20.0 °F 26.1 °F 92% 29.83 in 2.5 mi NW 8.1 mph 19.6 mph 0.01 in Snow Light Snow
1:28 AM 28.0 °F 16.5 °F 25.0 °F 88% 29.83 in 3.0 mi NNW 15.0 mph 19.6 mph 0.01 in Snow Light Snow
1:41 AM 28.0 °F 17.5 °F 25.0 °F 88% 29.82 in 2.5 mi NNW 12.7 mph 18.4 mph 0.01 in Snow Light Snow
1:56 AM 27.0 °F 16.7 °F 24.1 °F 89% 29.86 in 4.0 mi NNW 11.5 mph 25.3 mph 0.01 in Snow Light Snow
2:07 AM 27.0 °F 18.0 °F 24.1 °F 89% 29.84 in 2.0 mi NNW 9.2 mph 18.4 mph 0.00 in Snow Light Snow
2:31 AM 27.0 °F 18.0 °F 25.0 °F 92% 29.83 in 1.2 mi NW 9.2 mph - 0.00 in Snow Light Snow
2:56 AM 26.1 °F 16.8 °F 24.1 °F 92% 29.86 in 2.0 mi NW 9.2 mph - 0.00 in Snow Light Snow
3:08 AM 26.1 °F 15.6 °F 24.1 °F 92% 29.83 in 2.5 mi NW 11.5 mph - 0.00 in Snow Light Snow
3:17 AM 26.1 °F 15.6 °F 24.1 °F 92% 29.85 in 5.0 mi NW 11.5 mph - 0.00 in Snow Light Snow
3:26 AM 26.1 °F 16.8 °F 24.1 °F 92% 29.85 in 9.0 mi NNW 9.2 mph - 0.00 in   Overcast
3:56 AM 26.1 °F 16.8 °F 23.0 °F 88% 29.86 in 10.0 mi NW 9.2 mph - 0.00 in   Overcast
4:16 AM 25.0 °F 12.2 °F 19.9 °F 81% 29.84 in 10.0 mi NNW 16.1 mph 24.2 mph N/A   Overcast
4:43 AM 25.0 °F 14.2 °F 21.0 °F 85% 29.85 in 4.0 mi NNW 11.5 mph - 0.00 in Snow Light Snow
4:51 AM 24.8 °F 15.3 °F 21.2 °F 86% 29.86 in 4.0 mi NW 9.2 mph - 0.00 in Snow Light Snow
4:52 AM 25.0 °F 15.5 °F 21.0 °F 85% 29.89 in 4.0 mi NW 9.2 mph - 0.00 in Snow Light Snow
5:25 AM 24.1 °F 13.1 °F 19.9 °F 84% 29.86 in 7.0 mi NW 11.5 mph 19.6 mph 0.00 in Snow Light Snow
5:56 AM 24.1 °F 11.5 °F 19.0 °F 81% 29.90 in 10.0 mi NW 15.0 mph 23.0 mph 0.00 in   Overcast
6:56 AM 24.1 °F 12.0 °F 18.0 °F 77% 29.91 in 10.0 mi NNW 13.8 mph 21.9 mph N/A   Overcast
7:56 AM 24.1 °F 13.7 °F 17.1 °F 75% 29.95 in 10.0 mi NNW 10.4 mph - N/A   Overcast
8:56 AM 24.1 °F 13.1 °F 18.0 °F 77% 29.96 in 8.0 mi NW 11.5 mph 19.6 mph N/A   Overcast
9:39 AM 26.1 °F 15.0 °F 15.1 °F 63% 29.94 in 10.0 mi NW 12.7 mph 24.2 mph 0.00 in   Overcast
9:56 AM 26.1 °F 15.6 °F 16.0 °F 66% 29.98 in 10.0 mi NW 11.5 mph 25.3 mph 0.00 in   Overcast
10:56 AM 25.0 °F 12.6 °F 18.0 °F 75% 30.01 in 3.0 mi WNW 15.0 mph 21.9 mph 0.00 in Snow Light Snow
11:05 AM 26.1 °F 16.2 °F 19.0 °F 75% 29.98 in 2.5 mi NW 10.4 mph 23.0 mph 0.00 in Snow Light Snow
11:13 AM 26.1 °F 15.0 °F 19.0 °F 75% 29.98 in 9.0 mi WNW 12.7 mph 21.9 mph 0.00 in   Overcast
11:56 AM 28.0 °F 15.7 °F 17.1 °F 63% 30.03 in 10.0 mi WNW 17.3 mph 21.9 mph 0.00 in   Overcast
12:56 PM 28.9 °F 17.3 °F 16.0 °F 58% 30.04 in 10.0 mi NW 16.1 mph 23.0 mph N/A   Mostly Cloudy
1:56 PM 30.9 °F 20.2 °F 16.0 °F 54% 30.06 in 10.0 mi WNW 15.0 mph 21.9 mph 0.00 in   Overcast
2:56 PM 30.0 °F 19.5 °F 16.0 °F 56% 30.08 in 10.0 mi WNW 13.8 mph 19.6 mph N/A   Overcast
3:56 PM 30.9 °F 20.7 °F 12.0 °F 46% 30.09 in 10.0 mi NW 13.8 mph 23.0 mph N/A   Overcast
4:56 PM 34.0 °F 25.0 °F 12.0 °F 40% 30.09 in 10.0 mi WNW 12.7 mph 24.2 mph N/A   Overcast
5:56 PM 33.1 °F 22.6 °F 12.0 °F 42% 30.12 in 10.0 mi NW 16.1 mph 23.0 mph N/A   Mostly Cloudy
6:56 PM 30.9 °F 22.2 °F 9.0 °F 40% 30.15 in 10.0 mi WNW 10.4 mph 25.3 mph N/A   Mostly Cloudy
7:56 PM 30.0 °F 22.4 °F 10.0 °F 43% 30.17 in 10.0 mi NW 8.1 mph - N/A   Scattered Clouds
8:56 PM 27.0 °F 20.5 °F 10.0 °F 49% 30.21 in 10.0 mi WNW 5.8 mph - N/A   Partly Cloudy
9:56 PM 27.0 °F 20.5 °F 7.0 °F 43% 30.24 in 10.0 mi West 5.8 mph - N/A   Clear
10:56 PM 26.1 °F 20.5 °F 6.1 °F 43% 30.26 in 10.0 mi West 4.6 mph - N/A   Clear
11:56 PM 23.0 °F 18.4 °F 10.0 °F 58% 30.27 in 10.0 mi WSW 3.5 mph - N/A   Clear